Location: Unspecified
(0.0000°N, 0.0000°E)
Time: 17:47:34
(UTC+00:00)

Vanguard 1 - Pass Details

Date: 08 October 2020
Orbit: 650 x 3833 km, 34.3° (Epoch: 26 October)

Event Time Altitude Azimuth Distance (km) Brightness Sun altitude
Rises 09:06:02 0° 221° (SW) 6,002 13.9 49.3°
Reaches altitude 10° 09:12:14 10° 202° (SSW) 5,601 13.9 50.8°
Maximum altitude 09:22:53 17° 166° (SSE) 5,766 14.4 53.4°
Drops below altitude 10° 09:35:45 10° 130° (SE) 6,892 15.0 56.6°
Sets 09:45:04 0° 113° (ESE) 7,953 15.2 58.9°
